This is the latest recevied weather packets stored in our database for station/object WA6TJQ. If no packets are shown the sender has not sent any weather packets the latest 10 day(s).
| Time | Temp. | Humidity | Pressure | Rain* | Wind** | Luminosity | Snow |
|---|---|---|---|---|---|---|---|
| 1777818834 | 10.56° C | 50% | 1008.4 hPa | 0 mm | - | - | - |
| 1777818534 | 10° C | 52% | 1008.4 hPa | 0 mm | - | - | - |
| 1777818234 | 10° C | 50% | 1008.5 hPa | 0 mm | - | - | - |
| 1777817934 | 10° C | 50% | 1008.4 hPa | 0 mm | - | - | - |
| 1777817633 | 10° C | 48% | 1008.3 hPa | 0 mm | - | - | - |
| 1777817333 | 10° C | 46% | 1008.2 hPa | 0 mm | - | - | - |
| 1777817033 | 10° C | 50% | 1008.3 hPa | 0 mm | - | - | - |
| 1777816733 | 10° C | 53% | 1008.3 hPa | 0 mm | - | - | - |
| 1777816433 | 10° C | 50% | 1008.3 hPa | 0 mm | - | - | - |
| 1777816133 | 10° C | 52% | 1008.4 hPa | 0 mm | - | - | - |
| 1777815833 | 10° C | 54% | 1008.3 hPa | 0 mm | - | - | - |
| 1777815533 | 10° C | 53% | 1008.4 hPa | 0 mm | - | - | - |
| 1777815233 | 10° C | 53% | 1008.3 hPa | 0 mm | - | - | - |
| 1777814933 | 9.44° C | 52% | 1008.3 hPa | 0 mm | - | - | - |
| 1777814633 | 9.44° C | 53% | 1008.2 hPa | 0 mm | - | - | - |
| 1777814333 | 9.44° C | 52% | 1008.2 hPa | 0 mm | - | - | - |
| 1777814033 | 9.44° C | 52% | 1008.2 hPa | 0 mm | - | - | - |
| 1777813733 | 9.44° C | 51% | 1008.1 hPa | 0 mm | - | - | - |
| 1777813433 | 9.44° C | 52% | 1008 hPa | 0 mm | - | - | - |
| 1777813133 | 10° C | 54% | 1007.9 hPa | 0 mm | - | - | - |
| 1777812833 | 10° C | 53% | 1008.1 hPa | 0 mm | - | - | - |
| 1777812533 | 10° C | 52% | 1007.9 hPa | 0 mm | - | - | - |
| 1777812233 | 9.44° C | 53% | 1007.9 hPa | 0 mm | - | - | - |
| 1777811933 | 9.44° C | 52% | 1007.8 hPa | 0 mm | - | - | - |
| 1777811633 | 9.44° C | 51% | 1007.8 hPa | 0 mm | - | - | - |
* Rain latest hour (hover to see other rain measurements)
** Current wind speed in m/s (hover to see current wind gust speed)